Location: Kirkland Lake
(48.1510°N, 80.0330°W)
Time: 06:27:27
(UTC-04:00)

ISS - Visible Passes

Search period start: 16 July 2019 00:00
Search period end: 26 July 2019 00:00
Orbit: 409 x 418 km, 51.6° (Epoch: 16 July)

Date Brightness Start Highest point End Pass type
(mag) Time Alt. Az. Time Alt. Az. Time Alt. Az.
16 Jul -4.0 00:06:59 10° WSW 00:10:19 79° SSE 00:13:39 10° ENE visible
16 Jul -2.7 01:43:58 10° W 01:47:11 45° N 01:50:24 10° ENE visible
16 Jul -3.2 03:20:54 10° WNW 03:24:12 58° NNE 03:27:29 10° E visible
16 Jul -3.7 23:17:49 10° SW 23:21:04 53° SSE 23:24:19 10° ENE visible
17 Jul -2.9 00:54:32 10° W 00:57:48 50° N 01:01:04 10° ENE visible
17 Jul -2.8 02:31:34 10° WNW 02:34:49 48° N 02:38:04 10° E visible
17 Jul -3.8 04:08:18 10° WNW 04:11:35 59° SSW 04:14:50 10° SE visible
17 Jul -3.2 22:28:47 10° SSW 22:31:51 34° SE 22:34:54 10° ENE visible
18 Jul -3.3 00:05:07 10° W 00:08:25 62° NNW 00:11:44 10° ENE visible
18 Jul -2.6 01:42:12 10° WNW 01:45:25 44° N 01:48:37 10° ENE visible
18 Jul -3.9 03:18:58 10° WNW 03:22:19 86° SSW 03:25:37 10° ESE visible
18 Jul -2.3 04:56:16 10° W 04:58:36 18° SW 05:00:56 10° S visible
18 Jul -3.8 23:15:43 10° WSW 23:19:04 82° NNW 23:22:25 10° ENE visible
19 Jul -2.6 00:52:47 10° WNW 00:56:00 43° N 00:59:12 10° ENE visible
19 Jul -3.6 02:29:38 10° WNW 02:32:58 70° NNE 02:36:16 10° ESE visible
19 Jul -2.9 04:06:34 10° W 04:09:28 28° SW 04:12:19 10° SSE visible
19 Jul -3.9 22:26:25 10° WSW 22:29:44 71° SSE 22:33:04 10° ENE visible
20 Jul -2.7 00:03:19 10° W 00:06:34 46° N 00:09:47 10° ENE visible
20 Jul -3.1 01:40:18 10° WNW 01:43:35 55° NNE 01:45:57 17° E visible
20 Jul -2.2 03:17:04 10° WNW 03:18:29 22° W 03:18:29 22° W visible
20 Jul -3.0 23:13:51 10° W 23:17:08 53° NNW 23:20:25 10° ENE visible
21 Jul -2.8 00:50:55 10° WNW 00:54:10 47° N 00:56:07 21° ENE visible
21 Jul -1.9 02:27:39 10° WNW 02:28:52 20° WNW 02:28:52 20° WNW visible
21 Jul -3.4 22:24:24 10° W 22:27:43 66° NNW 22:31:03 10° ENE visible
22 Jul -2.6 00:01:29 10° WNW 00:04:42 44° N 00:07:36 12° ENE visible
22 Jul -2.6 01:38:16 10° WNW 01:40:22 36° WNW 01:40:22 36° WNW visible
22 Jul -2.6 23:12:01 10° WNW 23:15:14 44° N 23:18:27 10° ENE visible
23 Jul -3.5 00:48:54 10° WNW 00:52:10 65° N 00:52:10 65° N visible
23 Jul -2.7 22:22:31 10° W 22:25:46 47° N 22:29:01 10° ENE visible
23 Jul -3.1 23:59:30 10° WNW 00:02:47 52° NNE 00:04:06 30° ENE visible
24 Jul -1.3 01:36:16 10° WNW 01:36:54 15° WNW 01:36:54 15° WNW visible
24 Jul -2.8 23:10:04 10° WNW 23:13:18 46° N 23:16:06 13° E visible
25 Jul -2.6 00:46:49 10° WNW 00:48:54 35° WNW 00:48:54 35° WNW visible
25 Jul -2.6 22:20:35 10° WNW 22:23:48 43° N 22:27:01 10° ENE visible
